リニア彗星

C/2007 W3 ( LINEAR )

English version
Home page
Updated on October 12, 2008

---------------------------------------------------------------------

・ プロフィール

発見日 2007年11月29日
発見光度 19.6等
発見者 Lincoln Laboratory Near-Earth Asteroid Research project

・ 写真集

・ 軌道要素

The following orbital elements are taken from MPC 63376:

Epoch 2008 May 14.0 TT = JDT 2454600.5
T 2008 June 2.8019 TT                                   MPC
q   1.776591             (2000.0)            P               Q
z  -0.000067       Peri.  112.6297      -0.2854738      -0.1965047
 +/-0.000002       Node    73.0691      -0.6492888      -0.6802582
e   1.000119       Incl.   78.6736      +0.7049317      -0.7061407
From 171 observations 2007 Nov. 29-2008 July 9, mean residual 0".7.

・ 星図

・ 光度変化

        m1 = 12.5 + 5 logΔ + 10.0 log r

---------------------------------------------------------------------

軌道要素はMPCのEphemerides and Orbital Elementsに掲載されたものです。
星図はステラナビゲータ Ver.8 (アストロアーツ) で作成したものです。
光度グラフはComet for Windowsで作成したものです。

---------------------------------------------------------------------

Copyright(C) Seiichi Yoshida (comet@aerith.net). All rights reserved.